Flag for Nepal Weather past 2 weeks in Pokhara, Nepal

Now
55 °F

Fog.


Feels Like: 55 °F
Forecast: 61 / 83 °F
Wind: 2 mph from North

Location: Kathmandu Airport

Current Time: Apr 19, 2015 at 6:29:24 AM

Latest Report: Apr 19, 2015 at 5:35 AM


Visibility: 1 mi

Pressure: 29.92 "Hg

Humidity: 94%

Dew point: 54 °F

Location of PokharaLocation

Historic Weather in Pokhara — Graph

°F

Pokhara temperature yesterday

Maximum temperature yesterday: 72 °F (at 11:35 AM)
Minimum temperature yesterday: 55 °F (at 4:35 AM)
Average temperature yesterday: 64 °F

Past Weeks' High & Low Weather Summary

 TemperatureHumidityPressure
High81 °F (Apr 11, 12:35 PM)100% (Apr 14, 1:35 AM)30.27 "Hg (Apr 14, 1:35 AM)
Low50 °F (Apr 5, 2:35 AM)27% (Apr 8, 11:35 AM)29.77 "Hg (Apr 18, 3:35 PM)
Average63 °F70%30.03 "Hg
* Reported Apr 4 4:35 AM — Apr 19 4:35 AM, Pokhara, Weather by CustomWeather, © 2015

Note: Actual official high and low records may vary slightly from our data, if they occured in-between our weather recording intervals... More about our weather records

Advertising

Pokhara weather history for previous 24 hours

 ConditionsComfort  
Time TempWeatherWind HumidityBarometerVisibility
4:35 AM
Sun, Apr 19
55 °FFog.No wind100%29.89 "Hg3 mi
3:35 AM55 °FPassing clouds.No wind100%29.89 "Hg4 mi
2:35 AM57 °FPassing clouds.No wind94%29.89 "Hg4 mi
1:35 AM57 °FPassing clouds.5 mph94%29.89 "Hg4 mi
12:35 AM59 °FPassing clouds.3 mph94%29.92 "Hg4 mi
11:35 PM
Sat, Apr 18
61 °FPassing clouds.2 mph88%29.92 "Hg4 mi
10:35 PM61 °FPassing clouds.3 mph88%29.92 "Hg4 mi
9:35 PM63 °FPassing clouds.5 mph88%29.92 "Hg4 mi
8:35 PM66 °FPassing clouds.3 mph73%29.89 "Hg4 mi
7:35 PM68 °FPassing clouds.5 mph69%29.86 "Hg4 mi
6:35 PM68 °FThunderstorms. Scattered clouds.6 mph69%29.83 "Hg4 mi
5:35 PM70 °FBroken clouds.7 mph64%29.80 "Hg4 mi
4:35 PM72 °FThunderstorms. Broken clouds.7 mph61%29.80 "Hg4 mi
3:35 PM72 °FThunderstorms. Broken clouds.10 mph61%29.77 "Hg5 mi
2:35 PM72 °FRain. Broken clouds.5 mph61%29.80 "Hg4 mi
1:35 PM72 °FScattered clouds.7 mph61%29.83 "Hg5 mi
12:35 PM72 °FScattered clouds.3 mph57%29.86 "Hg6 mi
11:35 AM72 °FScattered clouds.8 mph57%29.89 "HgN/A
10:35 AM68 °FScattered clouds.2 mph60%29.92 "Hg5 mi
9:35 AM68 °FScattered clouds.5 mph64%29.92 "Hg4 mi
8:35 AM63 °FScattered clouds.2 mph77%29.92 "Hg4 mi
7:35 AM59 °FFog.2 mph88%29.92 "Hg2 mi
6:35 AM57 °FFog.No wind94%29.89 "Hg1 mi
Weather by CustomWeather, © 2015

See weather overviewHow to use our weather pages